Regional Weather Roundup
Issued by NWS Northern Indiana

Home | Current Version | Previous Version | Graphics & Text | Print | Product List | Glossary On
Versions: 1 2 3 4 5 6 7 8 9 10 11 12 13 14 15 16 17 18 19 20 21 22 23 24 25 26 27 28 29 30 31 32 33 34 35 36 37 38 39 40 41 42 43 44 45 46 47 48 49 50
000
ASUS43 KIWX 250610
RWRIWX

KIWX WEATHER ROUNDUP
NATIONAL WEATHER SERVICE NORTHERN INDIANA
200 AM EDT TUE JUL 25 2017

NOTE: "FAIR" INDICATES FEW OR NO CLOUDS BELOW 12,000 FEET WITH NO
SIGNIFICANT WEATHER AND/OR OBSTRUCTIONS TO VISIBILITY.

* THESE STATIONS ARE NOT UNDER NWS QUALITY CONTROL. THEY ALSO MAY NOT
  REPORT WEATHER SUCH AS PRECIPITATION OR FOG.

INZ001>027-250700-
NORTHERN INDIANA

CITY           SKY/WX    TMP DP  RH WIND       PRES   REMARKS
GARY*          CLEAR     69  63  81 E5        30.14R
VALPARAISO     CLEAR     61  60  97 NE3       30.15R
6HR MIN TEMP:  61; 6HR MAX TEMP:  72;

MICHIGAN CITY* FOG       57  57 100 CALM      30.15R VSB 3/4
LAPORTE*       CLEAR     58  58  99 CALM      30.15R FOG
6HR MIN TEMP:  58; 6HR MAX TEMP:  70;

KNOX*          CLEAR     59  59 100 CALM      30.14R
SOUTH BEND     CLEAR     61  60  97 CALM      30.14S
6HR MIN TEMP:  60; 6HR MAX TEMP:  73;

GOSHEN         CLEAR     57  53  86 CALM      30.14R
6HR MIN TEMP:  57; 6HR MAX TEMP:  74;

MONTICELLO*    CLEAR     62  60  91 E3        30.12R
6HR MIN TEMP:  62; 6HR MAX TEMP:  74;

LOGANSPORT*    CLEAR     59  55  88 E3        30.14R
ROCHESTER*     CLEAR     61  59  94 CALM      30.14R
WARSAW*        CLEAR     59  57  94 CALM      30.14S
AUBURN*        CLEAR     57  55  94 CALM      30.16R
FORT WAYNE     PTCLDY    59  57  93 CALM      30.15R
6HR MIN TEMP:  59; 6HR MAX TEMP:  73;

HUNTINGTON*    CLEAR     58  57  96 CALM      30.15R
6HR MIN TEMP:  58; 6HR MAX TEMP:  72;

PERU/GRISSOM   CLEAR     64  59  85 E6        30.12R
6HR MIN TEMP:  63; 6HR MAX TEMP:  74;

MARION*        CLEAR     59  57  94 CALM      30.15R

$$
INZ028>050-250700-
CENTRAL INDIANA

CITY           SKY/WX    TMP DP  RH WIND       PRES   REMARKS
LAFAYETTE      CLEAR     64  60  87 E9        30.11R
6HR MIN TEMP:  64; 6HR MAX TEMP:  75;

KOKOMO*        CLEAR     62  59  90 E6        30.14R
6HR MIN TEMP:  61; 6HR MAX TEMP:  74; 6HR PCP: TRACE;

MUNCIE*        CLEAR     61  57  87 E5        30.14R
6HR MIN TEMP:  61; 6HR MAX TEMP:  75;

INDIANAPOLIS   CLEAR     68  58  70 E8        30.11R
6HR MIN TEMP:  68; 6HR MAX TEMP:  79;


$$
MIZ043>046-050>051-056>058-064>065-071>073-077>080-250700-
SOUTHWEST LOWER MICHIGAN

CITY           SKY/WX    TMP DP  RH WIND       PRES   REMARKS
BATTLE CREEK   CLEAR     60  57  89 CALM      30.16R
6HR MIN TEMP:  58; 6HR MAX TEMP:  74;

BENTON HARBOR  CLEAR     60  57  89 CALM      30.13R
6HR MIN TEMP:  60; 6HR MAX TEMP:  71;

COLDWATER*     CLEAR     57  57 100 CALM      30.16R
6HR MIN TEMP:  57; 6HR MAX TEMP:  71;

HILLSDALE*     CLEAR     54  50  87 CALM      30.16R
HOLLAND        CLEAR     58  56  93 CALM      30.14R
6HR MIN TEMP:  58; 6HR MAX TEMP:  72;

GRAND RAPIDS   CLEAR     61  58  90 E3        30.14R
6HR MIN TEMP:  60; 6HR MAX TEMP:  76;

KALAMAZOO      CLEAR     60  56  86 CALM      30.15R
6HR MIN TEMP:  59; 6HR MAX TEMP:  75;

STURGIS*       CLEAR     57  56  98 CALM      30.14S
6HR MIN TEMP:  56; 6HR MAX TEMP:  70;

THREE RIVERS*  FAIR      58  57  96 CALM      30.15R
6HR MIN TEMP:  58; 6HR MAX TEMP:  72;


$$
OHZ001>008-015>018-024>025-250700-
NORTHWEST OHIO

CITY           SKY/WX    TMP DP  RH WIND       PRES   REMARKS
WAUSEON*       FAIR      55  54  94 CALM      30.15R
DEFIANCE       CLEAR    N/A N/A N/A CALM      30.15R
FINDLAY        CLEAR     62  56  80 CALM      30.13R
6HR MIN TEMP:  59; 6HR MAX TEMP:  71;

TOLEDO EXPRESS CLEAR     56  54  93 CALM      30.13R
6HR MIN TEMP:  56; 6HR MAX TEMP:  72;

TOLEDO METCALF CLEAR     65  52  62 CALM      30.14R
6HR MIN TEMP:  64; 6HR MAX TEMP:  73;

LIMA           CLEAR     57  57 100 N3        30.14R
6HR MIN TEMP:  56; 6HR MAX TEMP:  68;


$$
AND FOR LAKE MICHIGAN COASTAL AND OPEN LAKE BUOY OBSERVATIONS

STATION/POSITION TEMP    WIND        PRES    VSBY  WAVE
                 AIR SEA DIR/SP/G                  HT/PER
                 (F)     (DEG/KT/KT) (MB)    (MI)  (FT/S)
CALUMET HARBOR    70      60/  7/  9 1019.9R
MICHIGAN CITY     65      80/  8/  9   N/A
BURNS HARBOR      67      90/  8/  9 1020.7R
SAINT JOSEPH      63     100/  1/  2 1020.7
SOUTH LAKE BUOY   69 70   30/  8/ 10 1020.5R         2/ 6
4 MI NW BRIDGMAN  66 72  120/  6/  8 1020.4          3/ 6
MICHIGAN CITY     68 74  100/  8/ 10   N/A           4/ 6

$$
&&




USA.gov is the U.S. government's official web portal to all federal, state and local government web resources and services.